LLA weather

Luleå Airport
Luleå, Norrbottena län, Sweden

Public forecast

Using degrees Celsius for public forecast. Weather courtesy of forecast.io.

METAR (pilot weather report)

Retrieved 2018/12/15 22:20 UTC (0 seconds ago):

ESPA 152220Z AUTO 00000KT 3800 0900// R14/P2000N R32/P2000N -SG NCD M22/M24 Q1032

TAF (pilot weather forecast)

Forecast is more than 12 hours old.

Retrieved 2015/10/14 12:33 UTC (3 years ago):

TAF ESPA 141130Z 1412/1521 23003KT CAVOK